Simultaneous Nadir Overpasses (SNOs) Predictions

Prediction of SNOs between LANDSAT-8 and NPP Satellite Orbit:

Table of predicted SNOs for the next 14.0 days since TLE Epoch: 4/4/2014
Index Date (LANDSAT-8) Time (LANDSAT-8) Lat,Lon (LANDSAT-8) SZA (LANDSAT-8 ) Date (NPP) Time (NPP) Lat,Lon (NPP) SZA (NPP ) Distance(km) Time Diff (sec)
1 04/06/2014 19:57:11 -70.44, 57.53 116.27 04/06/2014 19:56:34 -70.46, 57.55 116.25 1.69 37
2 04/06/2014 20:46:38 70.33,-134.99 63.61 04/06/2014 20:47:18 70.33,-134.95 63.61 1.74 40
3 04/09/2014 11:24:06 70.56, 5.95 62.85 04/09/2014 11:22:53 70.58, 5.79 62.89 6.38 73
4 04/09/2014 12:13:37 -70.40, 173.35 117.32 04/09/2014 12:13:33 -70.39, 173.42 117.33 3.12 4
5 04/09/2014 13:03:04 70.28, -19.17 62.56 04/09/2014 13:04:17 70.26, -19.08 62.53 4.37 73
6 04/12/2014 03:40:33 70.48, 121.72 61.78 04/12/2014 03:39:52 70.47, 121.74 61.78 1.54 41
7 04/12/2014 04:30:03 -70.38, -70.80 118.33 04/12/2014 04:30:34 -70.38, -70.80 118.34 0.36 31
8 04/14/2014 19:07:26 -70.87, 70.55 118.80 04/14/2014 19:06:15 -70.90, 69.48 118.74 38.93 71
9 04/14/2014 19:56:59 70.43,-122.48 60.76 04/14/2014 19:56:52 70.42,-122.42 60.75 2.46 7
10 04/14/2014 20:46:29 -70.33, 45.01 119.36 04/14/2014 20:47:34 -70.33, 45.05 119.36 1.45 65
11 04/17/2014 11:23:57 -70.52,-174.11 120.10 04/17/2014 11:23:08 -70.49,-174.08 120.12 2.77 49
12 04/17/2014 12:13:24 70.39, -6.64 59.77 04/17/2014 12:13:52 70.37, -6.59 59.75 2.94 28
